Regional Weather Roundup
Issued by NWS

Home | Current Version | Previous Version | Graphics & Text | Print | Product List | Glossary On
Versions: 1 2 3 4 5 6 7 8 9 10 11 12 13 14 15 16 17 18 19 20 21 22 23 24 25 26 27 28 29 30 31 32 33 34 35 36 37 38 39 40 41 42 43 44 45 46 47 48 49 50
000
ASUS45 KCYS 010710
RWRWY

WYOMING REGIONAL WEATHER ROUNDUP
NATIONAL WEATHER SERVICE CHEYENNE WY
100 AM MDT SAT AUG 01 2015

NOTE:  "FAIR" INDICATES FEW OR NO CLOUDS BELOW 12,000 FEET
WITH NO SIGNIFICANT WEATHER AND/OR OBSTRUCTIONS TO VISIBILITY.

WYZ001-010800-
YELLOWSTONE NATIONAL PARK

CITY           SKY/WX    TMP DP  RH WIND       PRES   REMARKS
LK YELLOWSTONE   N/A     45  31  58 NW3       30.46F
W YELLOWSTONE  NOT AVBL

$$
WYZ002>013-054>058-071-098>099-010800-
NORTHERN WYOMING

CITY           SKY/WX    TMP DP  RH WIND       PRES   REMARKS
JACKSON        NOT AVBL
CODY           FAIR      70  27  19 S5        30.23S
GREYBULL       FAIR      78  34  20 NW8       30.09S
WORLAND        FAIR      65  33  30 SW7       30.12R
SHERIDAN       FAIR      60  46  59 S3        30.12S
BUFFALO        FAIR      66  39  37 W8        30.19F
GILLETTE         N/A     70  49  47 S14       30.13F
HULETT         FAIR      72  48  43 CALM      30.13F
NEWCASTLE      FAIR      73  43  33 MISG      30.15S

$$
WYZ014>020-022>026-101>103-010800-
CENTRAL WYOMING

CITY           SKY/WX    TMP DP  RH WIND       PRES   REMARKS
BIG PINEY      FAIR      53  32  44 NW9       30.35S
PINEDALE       FAIR      50  36  57 CALM      30.36S
DUBOIS         FAIR      57  30  35 W10       30.37S
LANDER         FAIR      69  30  23 W14       30.22R
RIVERTON       FAIR      66  28  24 NW9       30.22R
CASPER         FAIR      62  41  46 N7        30.18S
DOUGLAS        FAIR      69  48  47 SE12      30.17F

$$
WYZ021-027>030-104>119-010800-
SOUTHERN WYOMING

CITY           SKY/WX    TMP DP  RH WIND       PRES   REMARKS
EVANSTON       FAIR      66  28  24 CALM      30.37S
KEMMERER       FAIR      59  32  36 NW10      30.37F
FORT BRIDGER   SUNNY     64  27  24 W8        30.38S
ROCK SPRINGS   FAIR      64  20  18 W10       30.30R
DIXON          FAIR      60  27  28 NE3       30.29F
RAWLINS        FAIR      59  33  37 NE6       30.28F
SARATOGA       FAIR      63  41  45 SE9       30.31S
LARAMIE        FAIR      60  46  59 S10       30.34S
CHEYENNE       FAIR      63  50  62 W6        30.28S
TORRINGTON     FAIR      62  53  72 NE7       30.14S
PINE BLUFFS    FAIR      68  50  52 S10       30.23S

$$



USA.gov is the U.S. government's official web portal to all federal, state and local government web resources and services.